Weather History for Plattsmouth, NE

Change the Weather History Date:

Wednesday, May 23, 2012

  Actual Average (KOFF) Record (KOFF)
Temperature  
Mean Temperature 78 °F -  
Max Temperature 92 °F 72 °F 92 °F (2012)
Min Temperature 64 °F 53 °F 48 °F (2001)
Cooling Degree Days 13    
Growing Degree Days 28 (Base 50)    
Moisture  
Dew Point 52 °F    
Average Humidity 40    
Maximum Humidity 52    
Minimum Humidity 28    
Precipitation  
Precipitation 0.00 in - - ()
Sea Level Pressure  
Sea Level Pressure 29.52 in    
Wind  
Wind Speed 17 mph (SSE)    
Max Wind Speed 30 mph    
Max Gust Speed 40 mph    
Visibility 10 miles    
Events      
Averages and records for this station are not official NWS values.
T = Trace of Precipitation, MM = Missing Value Source: NWS Daily Summary

Daily Weather History Graph

Daily Weather History Graph

Search for Another Location

Airport:

Trip Planner

Search our weather history database for the weather conditions in past years. The results will help you decide how hot, cold, wet, or windy it might be!

Date:

Astronomy

May. 23, 2012 Rise Set
Actual Time 5:58 AM CDT 8:42 PM CDT
Civil Twilight 5:26 AM CDT 9:14 PM CDT
Nautical Twilight 4:46 AM CDT 9:55 PM CDT
Astronomical Twilight 4:00 AM CDT 10:41 PM CDT
Moon 8:02 AM CDT (5/23) 11:04 PM CDT (5/23)
Length of Visible Light 15h 47m
Length of Day
14h 43m
Waxing Crescent, 7% of the Moon is Illuminated
May 23
Waxing Crescent
May 28
First Quarter
Jun 4
Full
Jun 11
Last Quarter
Jun 19
New

Hourly Weather History & Observations

Time (CDT) Temp. Heat Index Dew Point Humidity Pressure Visibility Wind Dir Wind Speed Gust Speed Precip Events Conditions
12:15 AM 71.1 °F - 44.8 °F 39% 29.71 in 10.0 mi SSE 17.3 mph 26.5 mph N/A   Clear
12:35 AM 70.7 °F - 44.8 °F 39% 29.70 in 10.0 mi SSE 17.3 mph 25.3 mph N/A   Clear
12:55 AM 70.0 °F - 44.8 °F 40% 29.69 in 10.0 mi SSE 16.1 mph 26.5 mph N/A   Clear
1:15 AM 69.6 °F - 45.0 °F 41% 29.68 in 10.0 mi SSE 15.0 mph 21.9 mph N/A   Clear
1:35 AM 69.4 °F - 45.0 °F 41% 29.68 in 10.0 mi SSE 16.1 mph 21.9 mph N/A   Clear
1:55 AM 69.1 °F - 45.0 °F 42% 29.67 in 10.0 mi SSE 15.0 mph 20.7 mph N/A   Clear
2:15 AM 68.2 °F - 45.5 °F 44% 29.66 in 10.0 mi SSE 15.0 mph - N/A   Clear
2:35 AM 67.3 °F - 45.9 °F 46% 29.65 in 10.0 mi SSE 13.8 mph - N/A   Clear
3:15 AM 66.0 °F - 46.4 °F 49% 29.65 in 10.0 mi SSE 12.7 mph - N/A   Clear
3:35 AM 65.7 °F - 46.4 °F 50% 29.64 in 10.0 mi SSE 11.5 mph - N/A   Clear
3:55 AM 65.3 °F - 46.6 °F 51% 29.64 in 10.0 mi SSE 12.7 mph 18.4 mph N/A   Clear
4:15 AM 65.3 °F - 46.8 °F 51% 29.64 in 10.0 mi SSE 11.5 mph - N/A   Clear
4:35 AM 64.9 °F - 46.8 °F 52% 29.62 in 10.0 mi SSE 13.8 mph 17.3 mph N/A   Clear
4:55 AM 65.1 °F - 46.8 °F 51% 29.62 in 10.0 mi SE 13.8 mph 19.6 mph N/A   Clear
5:15 AM 65.1 °F - 46.9 °F 52% 29.61 in 10.0 mi SSE 13.8 mph 19.6 mph N/A   Clear
5:35 AM 64.9 °F - 46.9 °F 52% 29.60 in 10.0 mi SSE 12.7 mph 19.6 mph N/A   Clear
5:55 AM 64.9 °F - 47.1 °F 52% 29.60 in 10.0 mi SSE 13.8 mph 19.6 mph N/A   Clear
6:15 AM 65.3 °F - 47.3 °F 52% 29.60 in 10.0 mi SSE 13.8 mph 20.7 mph N/A   Clear
6:35 AM 65.3 °F - 47.5 °F 52% 29.60 in 10.0 mi SSE 12.7 mph 18.4 mph N/A   Clear
6:55 AM 65.7 °F - 47.7 °F 52% 29.61 in 10.0 mi SE 11.5 mph - N/A   Clear
7:15 AM 66.2 °F - 48.2 °F 52% 29.60 in 10.0 mi SSE 15.0 mph 20.7 mph N/A   Clear
7:35 AM 67.6 °F - 48.6 °F 50% 29.60 in 10.0 mi SSE 17.3 mph 25.3 mph N/A   Clear
7:55 AM 68.2 °F - 49.1 °F 50% 29.59 in 10.0 mi SSE 15.0 mph 24.2 mph N/A   Clear
8:15 AM 69.6 °F - 49.6 °F 49% 29.58 in 10.0 mi SSE 18.4 mph 24.2 mph N/A   Clear
8:35 AM 71.1 °F - 50.4 °F 48% 29.57 in 10.0 mi SSE 16.1 mph 26.5 mph N/A   Clear
8:55 AM 71.6 °F - 51.3 °F 49% 29.57 in 10.0 mi SSE 16.1 mph 23.0 mph N/A   Clear
9:35 AM 76.3 °F - 53.1 °F 44% 29.55 in 10.0 mi SSE 20.7 mph 28.8 mph N/A   Clear
9:55 AM 78.1 °F - 53.6 °F 43% 29.54 in 10.0 mi SSE 20.7 mph 28.8 mph N/A   Clear
10:15 AM 79.7 °F - 54.1 °F 41% 29.54 in 10.0 mi SSE 24.2 mph 32.2 mph N/A   Clear
10:35 AM 81.0 °F 80.6 °F 54.3 °F 40% 29.54 in 10.0 mi SSE 17.3 mph 28.8 mph N/A   Clear
10:55 AM 81.9 °F 81.2 °F 54.5 °F 39% 29.54 in 10.0 mi SSE 19.6 mph 27.6 mph N/A   Clear
11:15 AM 83.3 °F 82.3 °F 55.2 °F 38% 29.53 in 10.0 mi South 19.6 mph 26.5 mph N/A   Clear
11:35 AM 83.7 °F 82.8 °F 55.9 °F 39% 29.52 in 10.0 mi SSE 16.1 mph 25.3 mph N/A   Clear
11:55 AM 85.5 °F 84.3 °F 56.3 °F 37% 29.51 in 10.0 mi SSE 19.6 mph 25.3 mph N/A   Clear
12:35 PM 88.7 °F 87.1 °F 56.1 °F 33% 29.50 in 10.0 mi South 24.2 mph 31.1 mph N/A   Clear
12:55 PM 88.5 °F 86.9 °F 55.9 °F 33% 29.48 in 10.0 mi South 20.7 mph 33.4 mph N/A   Clear
1:15 PM 89.1 °F 87.5 °F 56.1 °F 33% 29.47 in 10.0 mi SSE 25.3 mph 34.5 mph N/A   Clear
1:35 PM 90.7 °F 89.0 °F 55.8 °F 31% 29.47 in 10.0 mi SSE 29.9 mph 39.1 mph N/A   Clear
1:55 PM 90.9 °F 89.2 °F 56.3 °F 31% 29.46 in 10.0 mi SSE 21.9 mph 28.8 mph N/A   Clear
2:15 PM 91.4 °F 89.4 °F 55.0 °F 29% 29.45 in 10.0 mi South 27.6 mph 35.7 mph N/A   Clear
2:35 PM 92.5 °F 90.4 °F 55.0 °F 28% 29.45 in 10.0 mi SSE 26.5 mph 39.1 mph N/A   Clear
2:55 PM 90.5 °F 88.5 °F 55.0 °F 30% 29.44 in 10.0 mi South 23.0 mph 38.0 mph N/A   Clear
3:15 PM 90.0 °F 87.9 °F 54.9 °F 30% 29.44 in 10.0 mi South 25.3 mph 33.4 mph N/A   Clear
3:35 PM 90.0 °F 88.1 °F 55.4 °F 31% 29.43 in 10.0 mi SSE 19.6 mph 29.9 mph N/A   Clear
3:55 PM 90.3 °F 88.5 °F 55.4 °F 31% 29.43 in 10.0 mi SSE 21.9 mph 35.7 mph N/A   Clear
4:15 PM 91.2 °F 89.4 °F 55.4 °F 30% 29.42 in 10.0 mi SSE 21.9 mph 32.2 mph N/A   Clear
4:35 PM 92.5 °F 90.4 °F 55.4 °F 28% 29.43 in 10.0 mi SSE 24.2 mph 40.3 mph N/A   Clear
4:55 PM 92.1 °F 90.0 °F 54.7 °F 28% 29.42 in 10.0 mi SSE 24.2 mph 34.5 mph N/A   Clear
5:15 PM 91.6 °F 89.3 °F 54.3 °F 28% 29.43 in 10.0 mi SSE 27.6 mph 36.8 mph N/A   Clear
5:35 PM 90.5 °F 88.3 °F 54.0 °F 29% 29.42 in 10.0 mi SSE 26.5 mph 34.5 mph N/A   Clear
5:55 PM 90.3 °F 88.3 °F 54.7 °F 30% 29.42 in 10.0 mi South 24.2 mph 31.1 mph N/A   Scattered Clouds
6:15 PM 90.1 °F 88.1 °F 54.5 °F 30% 29.41 in 10.0 mi SSE 21.9 mph 31.1 mph N/A   Scattered Clouds
6:35 PM 90.0 °F 87.9 °F 54.5 °F 30% 29.41 in 10.0 mi SSE 21.9 mph 28.8 mph N/A   Scattered Clouds
6:55 PM 89.1 °F 87.1 °F 54.7 °F 31% 29.40 in 10.0 mi SSE 16.1 mph 28.8 mph N/A   Clear
7:15 PM 87.6 °F 85.7 °F 54.0 °F 32% 29.40 in 10.0 mi SSE 19.6 mph 31.1 mph N/A   Clear
7:35 PM 86.9 °F 85.1 °F 54.3 °F 33% 29.41 in 10.0 mi SSE 21.9 mph 28.8 mph N/A   Clear
7:55 PM 86.2 °F 84.5 °F 54.9 °F 34% 29.41 in 10.0 mi SSE 18.4 mph 29.9 mph N/A   Clear
8:15 PM 86.0 °F 84.3 °F 54.7 °F 34% 29.42 in 10.0 mi SSE 18.4 mph 32.2 mph N/A   Clear
8:35 PM 84.9 °F 83.7 °F 55.6 °F 37% 29.42 in 10.0 mi SSE 16.1 mph 25.3 mph N/A   Clear
8:55 PM 84.4 °F 83.2 °F 55.2 °F 37% 29.42 in 10.0 mi SSE 17.3 mph 24.2 mph N/A   Scattered Clouds
9:15 PM 83.8 °F 82.8 °F 55.8 °F 38% 29.43 in 10.0 mi SSE 17.3 mph 23.0 mph N/A   Scattered Clouds
9:35 PM 83.5 °F 82.5 °F 55.6 °F 38% 29.44 in 10.0 mi SSE 17.3 mph 25.3 mph N/A   Clear
9:55 PM 83.3 °F 82.5 °F 55.9 °F 39% 29.45 in 10.0 mi SSE 17.3 mph 24.2 mph N/A   Clear
10:35 PM 82.9 °F 82.3 °F 56.1 °F 40% 29.47 in 10.0 mi SSE 15.0 mph 26.5 mph N/A   Scattered Clouds
10:55 PM 82.2 °F 81.9 °F 57.2 °F 42% 29.47 in 10.0 mi SSE 12.7 mph 16.1 mph N/A   Mostly Cloudy
11:15 PM 81.9 °F 81.7 °F 57.4 °F 43% 29.47 in 10.0 mi SSE 11.5 mph 25.3 mph N/A   Overcast
11:35 PM 81.3 °F 81.3 °F 57.4 °F 44% 29.45 in 10.0 mi SSE 13.8 mph 21.9 mph N/A   Overcast
11:55 PM 81.0 °F 81.0 °F 57.4 °F 44% 29.42 in 10.0 mi SSE 17.3 mph 26.5 mph N/A   Mostly Cloudy